period_start,C,m1,H,J0,J1,J2,J3,J4,J5,JA,JB,JC,JD,JJ,JK,JN,#
2015-09-30 00:03:11,0.00,1.18,0.00,22.83,27.82,30.76,14.61,47.46,1017.50,2035.00,3066.00,2959.05,3202.94,600.19,596.94,19.24,0000 0000 0000 0000 000000
2015-09-30 00:08:12,0.02,1.18,0.00,22.98,27.82,30.70,14.55,47.56,1017.58,2035.00,3065.71,2959.00,3202.30,599.90,596.53,19.29,0000 0000 0000 0000 000000
2015-09-30 00:13:13,0.01,1.18,0.00,23.07,27.82,30.77,14.59,47.48,1017.59,2035.00,3065.20,2958.99,3202.06,600.23,596.72,19.34,0000 0000 0000 0000 000000
2015-09-30 00:18:14,0.00,1.18,0.00,22.98,27.82,30.75,14.57,47.58,1017.59,2035.00,3065.05,2958.99,3202.01,600.42,597.07,19.39,0000 0000 0000 0000 000000
2015-09-30 00:23:16,0.00,1.18,0.00,23.12,27.82,30.73,14.45,47.38,1017.60,2034.99,3065.00,2958.98,3202.01,600.31,596.57,19.44,0000 0000 0000 0000 000000
2015-09-30 00:28:17,0.00,1.18,0.00,23.04,27.84,30.76,14.55,47.26,1017.60,2034.99,3065.00,2958.84,3202.00,600.27,596.69,19.49,0000 0000 0000 0000 000000
2015-09-30 00:33:18,-0.00,1.18,0.00,23.05,27.85,30.72,14.63,47.51,1017.62,2034.99,3064.99,2958.81,3202.00,600.01,596.51,19.54,0000 0000 0000 0000 000000
2015-09-30 00:38:19,0.01,1.18,0.00,23.18,27.85,30.74,14.54,47.44,1017.75,2034.99,3064.98,2958.40,3201.99,600.51,596.85,19.59,0000 0000 0000 0000 000000
2015-09-30 00:43:20,0.00,1.18,0.00,22.99,27.85,30.76,14.55,47.46,1018.02,2034.99,3064.94,2958.21,3201.98,599.95,596.80,19.64,0000 0000 0000 0000 000000
2015-09-30 00:48:21,0.04,1.18,0.00,23.04,27.85,30.74,14.51,47.56,1018.04,2034.99,3064.02,2957.96,3201.20,600.00,596.70,19.69,0000 0000 0000 0000 000000
2015-09-30 00:53:23,0.02,1.18,0.00,23.18,27.85,30.74,14.59,47.38,1018.08,2034.99,3063.27,2957.63,3201.00,600.48,596.92,19.74,0000 0000 0000 0000 000000
2015-09-30 00:58:24,-0.00,1.18,0.00,23.07,27.85,30.74,14.59,47.53,1018.08,2034.99,3063.16,2957.62,3201.00,599.80,596.55,19.79,0000 0000 0000 0000 000000
2015-09-30 01:03:25,0.01,1.18,0.00,23.20,27.85,30.74,14.52,47.52,1018.08,2034.99,3063.05,2957.29,3200.97,599.71,596.24,19.84,0000 0000 0000 0000 000000
2015-09-30 01:08:26,0.00,1.18,0.00,23.17,27.85,30.74,14.56,47.50,1018.11,2034.99,3063.01,2957.15,3200.96,599.85,596.53,19.89,0000 0000 0000 0000 000000
2015-09-30 01:13:27,0.00,1.18,0.00,23.23,27.85,30.73,14.60,47.66,1018.13,2034.99,3063.00,2957.04,3200.91,599.81,596.33,19.94,0000 0000 0000 0000 000000
2015-09-30 01:18:29,0.00,1.18,0.00,23.26,27.86,30.77,14.55,47.42,1018.25,2034.99,3063.00,2957.02,3200.83,599.89,596.37,19.99,0000 0000 0000 0000 000000
2015-09-30 01:23:30,0.01,1.18,0.00,23.35,27.87,30.75,14.57,47.64,1018.27,2034.99,3062.98,2957.02,3200.55,600.26,596.53,20.04,0000 0000 0000 0000 000000
2015-09-30 01:28:31,0.01,1.18,0.00,23.27,27.87,30.75,14.52,47.50,1018.37,2034.99,3062.73,2957.00,3200.16,599.91,596.40,20.09,0000 0000 0000 0000 000000
2015-09-30 01:33:32,0.01,1.19,0.00,23.28,27.87,30.73,14.51,47.56,1018.51,2034.99,3062.45,2957.00,3200.05,599.94,596.52,20.14,0000 0000 0000 0000 000000
2015-09-30 01:38:33,0.00,1.19,0.00,23.26,27.87,30.77,14.61,47.77,1018.56,2034.99,3062.25,2957.00,3200.02,600.41,597.05,20.19,0000 0000 0000 0000 000000
2015-09-30 01:43:35,0.00,1.19,0.00,23.25,27.87,30.73,14.56,47.52,1018.57,2034.99,3062.15,2957.00,3200.02,600.21,596.85,20.24,0000 0000 0000 0000 000000
2015-09-30 01:48:36,0.00,1.19,0.00,23.32,27.87,30.72,14.58,47.58,1018.58,2034.98,3062.05,2957.00,3200.01,600.41,596.89,20.29,0000 0000 0000 0000 000000
2015-09-30 01:53:37,0.00,1.19,0.00,23.30,27.87,30.75,14.58,47.58,1018.60,2034.99,3062.03,2956.99,3200.00,600.28,596.89,20.34,0000 0000 0000 0000 000000
2015-09-30 01:58:38,0.00,1.19,0.00,23.26,27.87,30.74,14.61,47.59,1018.63,2034.99,3062.01,2956.97,3200.00,600.54,597.29,20.39,0000 0000 0000 0000 000000
2015-09-30 02:03:39,0.00,1.19,0.00,23.33,27.87,30.72,14.50,47.52,1018.70,2034.99,3062.01,2956.98,3200.00,599.92,596.52,20.44,0000 0000 0000 0000 000000
2015-09-30 02:08:41,0.00,1.19,0.00,23.36,27.87,30.74,14.60,47.53,1018.75,2034.99,3062.00,2956.95,3200.00,600.26,596.77,20.49,0000 0000 0000 0000 000000
2015-09-30 02:13:42,0.00,1.19,0.00,23.38,27.87,30.72,14.55,47.45,1018.88,2034.99,3062.00,2956.97,3200.00,600.18,596.83,20.54,0000 0000 0000 0000 000000
2015-09-30 02:18:43,0.00,1.19,0.00,23.39,27.87,30.74,14.50,47.37,1018.99,2034.99,3062.00,2956.94,3200.00,600.05,596.57,20.59,0000 0000 0000 0000 000000
2015-09-30 02:23:44,0.00,1.19,0.00,23.30,27.87,30.72,14.53,47.44,1019.03,2034.99,3061.99,2956.89,3200.00,600.05,596.92,20.64,0000 0000 0000 0000 000000
2015-09-30 02:28:45,0.00,1.19,0.00,23.36,27.88,30.72,14.44,47.40,1019.06,2034.99,3061.98,2956.74,3199.96,599.43,596.26,20.69,0000 0000 0000 0000 000000
2015-09-30 02:33:47,0.01,1.19,0.00,23.25,27.89,30.77,14.57,47.28,1019.06,2034.98,3061.97,2956.56,3199.93,599.52,596.56,20.74,0000 0000 0000 0000 000000
2015-09-30 02:38:48,0.00,1.19,0.00,23.28,27.89,30.71,14.60,47.29,1019.06,2034.97,3061.97,2956.39,3199.91,600.23,597.10,20.79,0000 0000 0000 0000 000000
2015-09-30 02:43:49,0.00,1.19,0.00,23.32,27.90,30.74,14.50,47.27,1019.08,2034.98,3061.98,2956.37,3199.86,599.93,596.76,20.84,0000 0000 0000 0000 000000
2015-09-30 02:48:50,-0.01,1.19,0.00,23.27,27.90,30.77,14.58,47.35,1019.20,2034.98,3061.99,2956.50,3199.91,600.17,597.15,20.89,0000 0000 0000 0000 000000
2015-09-30 02:53:51,0.01,1.19,0.00,23.36,27.90,30.74,14.55,47.37,1019.44,2034.95,3061.98,2956.27,3199.63,600.27,597.22,20.94,0000 0000 0000 0000 000000
2015-09-30 02:58:53,-0.00,1.19,0.00,23.24,27.90,30.78,14.53,47.26,1019.53,2034.97,3061.96,2956.30,3199.54,599.84,596.99,20.99,0000 0000 0000 0000 000000
2015-09-30 03:03:54,0.00,1.19,0.00,23.26,27.90,30.74,14.61,47.48,1019.55,2034.95,3061.88,2956.16,3199.34,600.21,597.40,21.04,0000 0000 0000 0000 000000
2015-09-30 03:08:55,0.01,1.19,0.00,23.38,27.90,30.76,14.51,47.47,1019.55,2034.95,3061.76,2956.06,3199.21,599.95,596.96,21.09,0000 0000 0000 0000 000000
2015-09-30 03:13:57,-0.01,1.19,0.00,23.25,27.90,30.78,14.50,47.38,1019.55,2034.80,3061.24,2956.00,3199.03,599.76,597.06,21.14,0000 0000 0000 0000 000000
2015-09-30 03:18:58,0.01,1.19,0.00,23.29,27.90,30.73,14.56,47.42,1019.55,2034.85,3061.24,2956.01,3199.02,599.79,597.11,21.19,0000 0000 0000 0000 000000
2015-09-30 03:23:59,0.00,1.19,0.00,23.34,27.90,30.77,14.56,47.35,1019.55,2034.90,3061.44,2956.05,3199.04,599.81,596.83,21.24,0000 0000 0000 0000 000000
2015-09-30 03:29:01,-0.00,1.19,0.00,23.31,27.92,30.74,14.55,47.31,1019.55,2034.87,3061.48,2956.03,3199.02,599.95,596.95,21.29,0000 0000 0000 0000 000000
2015-09-30 03:34:02,-0.01,1.19,0.00,23.40,27.92,30.76,14.57,47.14,1019.57,2034.76,3061.46,2956.00,3199.00,600.35,597.26,21.34,0000 0000 0000 0000 000000
2015-09-30 03:39:03,-0.04,1.19,0.00,23.29,27.92,30.77,14.60,47.36,1019.62,2034.39,3061.13,2956.00,3199.00,600.03,597.24,21.40,0000 0000 0000 0000 000000
2015-09-30 03:44:05,0.04,1.19,0.00,23.39,27.92,30.77,14.60,47.11,1019.80,2034.47,3061.10,2956.00,3199.00,600.57,597.71,21.45,0000 0000 0000 0000 000000
2015-09-30 03:49:06,-0.01,1.19,0.00,23.37,27.92,30.79,14.53,47.31,1019.90,2034.61,3061.06,2956.00,3199.00,599.72,596.97,21.50,0000 0000 0000 0000 000000
2015-09-30 03:54:07,-0.01,1.19,0.00,23.45,27.93,30.78,14.60,47.33,1019.98,2034.51,3061.00,2956.00,3199.00,599.96,597.03,21.55,0000 0000 0000 0000 000000
2015-09-30 03:59:08,-0.01,1.19,0.00,23.47,27.95,30.78,14.50,47.28,1020.01,2034.37,3061.00,2956.00,3199.00,599.95,596.99,21.60,0000 0000 0000 0000 000000
2015-09-30 04:04:10,0.02,1.19,0.00,23.49,27.95,30.78,14.53,47.16,1020.03,2034.44,3061.00,2956.00,3199.00,600.09,597.09,21.65,0000 0000 0000 0000 000000
2015-09-30 04:09:11,-0.01,1.19,0.00,23.47,27.95,30.84,14.48,47.16,1020.03,2034.43,3060.98,2955.98,3198.99,599.61,596.65,21.70,0000 0000 0000 0000 000000
2015-09-30 04:14:12,-0.02,1.19,0.00,23.38,27.95,30.80,14.60,47.22,1020.03,2034.22,3060.92,2955.95,3198.97,600.40,597.85,21.75,0000 0000 0000 0000 000000
2015-09-30 04:19:14,0.02,1.19,0.00,23.48,27.96,30.83,14.46,47.19,1020.04,2034.17,3060.51,2955.75,3198.97,599.65,596.72,21.80,0000 0000 0000 0000 000000
2015-09-30 04:24:15,0.00,1.19,0.00,23.46,27.97,30.83,14.54,47.08,1020.04,2034.23,3060.44,2955.65,3198.96,600.06,597.08,21.85,0000 0000 0000 0000 000000
2015-09-30 04:29:16,0.01,1.19,0.00,23.49,27.97,30.82,14.56,47.14,1020.05,2034.32,3060.36,2955.62,3198.90,599.91,596.95,21.90,0000 0000 0000 0000 000000
2015-09-30 04:34:18,0.00,1.19,0.00,23.46,27.98,30.84,14.52,47.27,1020.04,2034.26,3060.13,2955.28,3198.71,599.84,597.02,21.95,0000 0000 0000 0000 000000
2015-09-30 04:39:19,0.00,1.19,0.00,23.47,28.00,30.82,14.51,47.17,1020.05,2034.11,3060.03,2955.11,3198.20,599.87,596.96,22.00,0000 0000 0000 0000 000000
2015-09-30 04:44:20,-0.00,1.19,0.00,23.53,28.00,30.86,14.48,47.17,1020.05,2034.07,3060.02,2955.06,3198.09,599.87,596.97,22.05,0000 0000 0000 0000 000000
2015-09-30 04:49:22,0.00,1.19,0.00,23.42,28.00,30.83,14.55,47.34,1020.05,2034.07,3060.01,2955.05,3198.07,600.03,597.24,22.10,0000 0000 0000 0000 000000
2015-09-30 04:54:23,0.00,1.19,0.00,23.50,28.00,30.83,14.57,47.27,1020.09,2034.08,3060.00,2955.03,3198.02,599.84,596.94,22.15,0000 0000 0000 0000 000000
2015-09-30 04:59:24,-0.01,1.19,0.00,23.49,28.01,30.87,14.58,47.38,1020.10,2034.04,3060.00,2955.00,3198.01,599.89,596.99,22.20,0000 0000 0000 0000 000000
2015-09-30 05:04:26,0.00,1.19,0.00,23.41,28.02,30.81,14.59,47.50,1020.31,2034.02,3059.99,2955.00,3198.00,600.21,597.56,22.25,0000 0000 0000 0000 000000
2015-09-30 05:09:27,0.00,1.19,0.00,23.50,28.02,30.85,14.53,47.18,1020.45,2034.04,3059.98,2955.00,3198.00,600.38,597.56,22.30,0000 0000 0000 0000 000000
2015-09-30 05:14:28,0.00,1.19,0.00,23.49,28.02,30.85,14.60,47.27,1020.45,2034.03,3059.83,2954.99,3198.00,600.04,597.33,22.35,0000 0000 0000 0000 000000
2015-09-30 05:19:29,-0.00,1.19,0.00,23.56,28.02,30.86,14.53,47.10,1020.45,2034.05,3059.88,2954.99,3198.00,599.79,596.93,22.40,0000 0000 0000 0000 000000
2015-09-30 05:24:31,0.00,1.19,0.00,23.45,28.02,30.85,14.54,47.17,1020.47,2034.07,3059.88,2954.99,3198.00,599.91,597.30,22.45,0000 0000 0000 0000 000000
2015-09-30 05:29:32,-0.00,1.19,0.00,23.55,28.02,30.84,14.54,47.12,1020.47,2034.01,3059.83,2954.99,3197.98,599.82,597.02,22.50,0000 0000 0000 0000 000000
2015-09-30 05:34:33,0.00,1.19,0.00,23.55,28.02,30.86,14.56,47.28,1020.48,2034.03,3059.74,2954.99,3197.97,600.20,597.38,22.55,0000 0000 0000 0000 000000
2015-09-30 05:39:34,0.00,1.19,0.00,23.57,28.03,30.87,14.58,47.24,1020.51,2034.01,3059.62,2954.99,3197.96,600.01,597.19,22.60,0000 0000 0000 0000 000000
2015-09-30 05:44:36,0.00,1.19,0.00,23.51,28.03,30.88,14.51,47.25,1020.52,2034.01,3059.61,2954.99,3197.90,599.60,596.95,22.65,0000 0000 0000 0000 000000
2015-09-30 05:49:37,0.01,1.19,0.00,23.48,28.03,30.85,14.52,47.35,1020.52,2034.00,3059.28,2954.98,3197.60,600.04,597.47,22.70,0000 0000 0000 0000 000000
2015-09-30 05:54:38,-0.00,1.19,0.00,23.51,28.03,30.86,14.56,47.06,1020.53,2034.00,3059.40,2954.97,3197.25,599.97,597.31,22.75,0000 0000 0000 0000 000000
2015-09-30 05:59:40,-0.00,1.19,0.00,23.46,28.04,30.84,14.56,47.22,1020.54,2034.00,3059.67,2954.97,3197.13,599.80,597.18,22.80,0000 0000 0000 0000 000000
2015-09-30 06:04:41,0.01,1.19,0.00,23.53,28.04,30.85,14.56,47.20,1020.69,2034.00,3059.34,2954.95,3197.03,599.76,597.22,22.85,0000 0000 0000 0000 000000
2015-09-30 06:09:42,0.00,1.19,0.00,23.41,28.04,30.86,14.57,47.18,1020.89,2034.00,3059.15,2954.93,3197.05,599.99,597.61,22.90,0000 0000 0000 0000 000000
2015-09-30 06:14:43,0.00,1.19,0.00,23.45,28.04,30.82,14.59,47.11,1020.90,2033.99,3059.11,2954.83,3197.01,600.04,597.54,22.95,0000 0000 0000 0000 000000
2015-09-30 06:19:45,0.01,1.19,0.00,23.54,28.05,30.86,14.51,47.21,1020.88,2033.99,3059.01,2954.55,3197.01,599.48,596.94,23.00,0000 0000 0000 0000 000000
2015-09-30 06:24:46,-0.00,1.19,0.00,23.56,28.05,30.86,14.51,47.02,1020.91,2033.99,3059.00,2954.68,3197.01,599.67,597.06,23.05,0000 0000 0000 0000 000000
2015-09-30 06:29:47,-0.00,1.19,0.00,23.58,28.05,30.87,14.58,47.12,1021.00,2033.99,3059.03,2954.82,3197.01,600.04,597.56,23.10,0000 0000 0000 0000 000000
2015-09-30 06:34:48,0.00,1.19,0.00,23.51,28.05,30.83,14.51,47.17,1021.00,2033.99,3059.07,2954.84,3197.00,600.01,597.49,23.15,0000 0000 0000 0000 000000
2015-09-30 06:39:49,-0.00,1.19,0.00,23.61,28.05,30.83,14.49,46.99,1021.00,2033.99,3059.09,2954.86,3197.00,599.94,597.31,23.20,0000 0000 0000 0000 000000
2015-09-30 06:44:50,0.01,1.19,0.00,23.65,28.05,30.84,14.57,47.14,1020.99,2033.98,3059.00,2954.47,3197.00,600.16,597.45,23.25,0000 0000 0000 0000 000000
2015-09-30 06:49:51,0.00,1.19,0.00,23.69,28.05,30.82,14.50,47.15,1020.98,2033.99,3058.99,2954.31,3197.00,599.81,597.06,23.30,0000 0000 0000 0000 000000
2015-09-30 06:54:53,0.01,1.19,0.00,23.65,28.05,30.86,14.50,47.08,1020.90,2033.99,3058.98,2954.19,3197.00,600.09,597.41,23.35,0000 0000 0000 0000 000000
2015-09-30 06:59:54,0.00,1.19,0.00,23.62,28.05,30.83,14.55,47.08,1020.68,2033.99,3058.98,2954.08,3197.00,599.99,597.17,23.40,0000 0000 0000 0000 000000
2015-09-30 07:04:55,-0.00,1.19,0.00,23.65,28.05,30.86,14.54,47.23,1020.80,2033.99,3058.95,2954.10,3196.99,600.11,597.10,23.45,0000 0000 0000 0000 000000
2015-09-30 07:09:57,0.00,1.19,0.00,23.63,28.05,30.87,14.51,47.04,1021.00,2033.99,3058.98,2954.06,3196.98,599.77,597.26,23.50,0000 0000 0000 0000 000000
2015-09-30 07:14:58,0.00,1.19,0.00,23.66,28.06,30.85,14.56,46.97,1021.01,2033.99,3058.95,2954.04,3196.96,600.14,597.40,23.55,0000 0000 0000 0000 000000
2015-09-30 07:19:59,0.00,1.19,0.00,23.57,28.07,30.91,14.52,47.02,1021.04,2033.99,3058.96,2954.05,3196.99,599.94,597.42,23.60,0000 0000 0000 0000 000000
2015-09-30 07:25:01,0.00,1.19,0.00,23.56,28.07,30.85,14.53,46.94,1021.04,2033.97,3058.95,2954.03,3196.95,599.80,597.42,23.65,0000 0000 0000 0000 000000
2015-09-30 07:30:02,0.00,1.19,0.00,23.61,28.07,30.90,14.57,47.23,1021.02,2033.96,3058.71,2954.02,3196.85,599.95,597.34,23.70,0000 0000 0000 0000 000000
2015-09-30 07:35:03,0.01,1.19,0.00,23.64,28.07,30.85,14.48,47.28,1021.03,2033.94,3058.23,2954.00,3196.61,599.69,597.08,23.75,0000 0000 0000 0000 000000
2015-09-30 07:40:05,0.00,1.19,0.00,23.67,28.07,30.86,14.50,47.30,1021.03,2033.93,3058.13,2954.01,3196.33,599.69,596.87,23.80,0000 0000 0000 0000 000000
2015-09-30 07:45:06,-0.00,1.19,0.00,23.68,28.07,30.89,14.57,47.27,1021.03,2033.88,3058.08,2954.00,3196.18,600.10,597.50,23.85,0000 0000 0000 0000 000000
2015-09-30 07:50:08,-0.01,1.19,0.00,23.73,28.07,30.86,14.57,47.03,1021.04,2033.84,3058.14,2954.01,3196.18,600.08,597.16,23.90,0000 0000 0000 0000 000000
2015-09-30 07:55:09,0.01,1.19,0.00,23.72,28.07,30.84,14.57,47.14,1021.28,2033.94,3058.41,2954.02,3196.30,600.32,597.63,23.95,0000 0000 0000 0000 000000
2015-09-30 08:00:10,-0.01,1.19,0.00,23.75,28.07,30.81,14.58,46.94,1021.46,2033.88,3058.10,2954.01,3196.20,599.99,597.38,24.00,0000 0000 0000 0000 000000
2015-09-30 08:05:12,-0.00,1.19,0.00,23.80,28.07,30.80,14.56,47.07,1021.50,2033.92,3058.19,2954.04,3196.48,600.02,597.30,24.05,0000 0000 0000 0000 000000
2015-09-30 08:10:13,0.01,1.19,0.00,23.83,28.07,30.79,14.60,46.89,1021.50,2033.92,3058.07,2954.02,3196.28,600.31,597.57,24.10,0000 0000 0000 0000 000000
2015-09-30 08:15:14,-0.00,1.19,0.00,23.87,28.06,30.77,14.60,46.92,1021.50,2033.89,3058.07,2954.03,3196.17,600.34,597.51,24.16,0000 0000 0000 0000 000000
2015-09-30 08:20:15,0.00,1.19,0.00,23.83,28.05,30.80,14.48,46.90,1021.50,2033.91,3058.00,2954.00,3196.08,600.06,597.37,24.21,0000 0000 0000 0000 000000
2015-09-30 08:25:17,-0.00,1.19,0.00,23.84,28.05,30.80,14.48,46.93,1021.51,2033.94,3058.00,2954.01,3196.08,600.02,597.30,24.26,0000 0000 0000 0000 000000
2015-09-30 08:30:18,-0.01,1.19,0.00,23.76,28.05,30.79,14.46,46.95,1021.51,2033.88,3058.00,2954.00,3196.03,600.07,597.53,24.31,0000 0000 0000 0000 000000
2015-09-30 08:35:19,0.00,1.19,0.00,23.76,28.05,30.80,14.50,46.99,1021.51,2033.88,3058.00,2954.00,3196.06,599.52,596.94,24.36,0000 0000 0000 0000 000000
2015-09-30 08:40:21,0.00,1.19,0.00,23.69,28.05,30.83,14.59,47.08,1021.51,2033.97,3058.00,2954.00,3196.08,599.93,597.45,24.41,0000 0000 0000 0000 000000
2015-09-30 08:45:22,-0.00,1.19,0.00,23.68,28.05,30.82,14.60,47.23,1021.51,2033.99,3057.99,2954.02,3196.17,599.91,597.45,24.46,0000 0000 0000 0000 000000
2015-09-30 08:50:24,-0.00,1.19,0.00,23.59,28.05,30.85,14.55,47.13,1021.51,2033.97,3057.94,2954.00,3196.12,599.92,597.63,24.51,0000 0000 0000 0000 000000
2015-09-30 08:55:25,0.00,1.19,0.00,23.62,28.04,30.82,14.58,47.13,1021.50,2033.98,3057.88,2954.00,3196.12,600.34,597.99,24.56,0000 0000 0000 0000 000000
2015-09-30 09:00:26,0.01,1.19,0.00,23.65,28.03,30.85,14.57,47.05,1021.51,2033.99,3057.81,2954.01,3196.08,600.50,598.13,24.61,0000 0000 0000 0000 000000
2015-09-30 09:05:28,-0.00,1.19,0.00,23.60,28.02,30.82,14.55,47.01,1021.61,2033.99,3057.63,2954.00,3196.05,599.72,597.57,24.66,0000 0000 0000 0000 000000
2015-09-30 09:10:29,0.00,1.19,0.00,23.57,28.02,30.84,14.58,47.05,1021.74,2033.99,3057.68,2954.00,3196.07,600.08,598.01,24.71,0000 0000 0000 0000 000000
2015-09-30 09:15:30,0.01,1.19,0.00,23.61,28.02,30.84,14.60,47.13,1021.80,2033.98,3057.20,2954.00,3196.06,599.89,597.82,24.76,0000 0000 0000 0000 000000
2015-09-30 09:20:31,0.00,1.19,0.00,23.58,28.02,30.85,14.50,47.07,1021.86,2033.99,3057.05,2954.00,3196.01,599.98,597.80,24.81,0000 0000 0000 0000 000000
2015-09-30 09:25:33,0.00,1.19,0.00,23.52,28.02,30.83,14.58,47.03,1021.86,2033.99,3057.03,2954.01,3196.02,600.01,597.94,24.86,0000 0000 0000 0000 000000
2015-09-30 09:30:34,0.00,1.19,0.00,23.52,28.02,30.83,14.56,47.04,1021.88,2033.99,3057.01,2954.00,3196.00,599.97,598.03,24.91,0000 0000 0000 0000 000000
2015-09-30 09:35:35,0.00,1.19,0.00,23.56,28.01,30.82,14.63,47.13,1021.89,2033.99,3057.01,2954.00,3196.01,600.19,598.22,24.96,0000 0000 0000 0000 000000
2015-09-30 09:40:37,0.00,1.19,0.00,23.62,28.00,30.80,14.63,47.08,1021.98,2033.99,3057.01,2954.00,3196.01,599.94,598.03,25.01,0000 0000 0000 0000 000000
2015-09-30 09:45:37,0.00,1.19,0.00,23.53,28.00,30.84,14.55,46.96,1021.99,2033.99,3057.00,2954.01,3196.00,600.16,598.23,25.06,0000 0000 0000 0000 000000
2015-09-30 09:50:38,0.00,1.19,0.00,23.56,28.00,30.79,14.62,47.05,1021.99,2033.99,3057.01,2954.01,3196.00,600.29,598.31,25.11,0000 0000 0000 0000 000000
2015-09-30 09:55:40,0.00,1.19,0.00,23.51,28.00,30.81,14.58,47.03,1021.99,2033.99,3057.02,2954.02,3196.00,600.19,598.33,25.16,0000 0000 0000 0000 000000
2015-09-30 10:00:41,0.00,1.19,0.00,23.42,27.99,30.76,14.63,47.22,1021.99,2033.99,3057.02,2954.02,3196.00,600.19,598.62,25.21,0000 0000 0000 0000 000000
2015-09-30 10:05:43,0.00,1.19,0.00,23.49,27.98,30.78,14.61,47.00,1021.99,2033.99,3057.00,2954.03,3196.00,600.13,598.34,25.26,0000 0000 0000 0000 000000
2015-09-30 10:10:44,0.00,1.19,0.00,23.35,27.97,30.82,14.56,47.08,1022.02,2033.99,3057.00,2954.01,3196.00,599.89,598.36,25.31,0000 0000 0000 0000 000000
2015-09-30 10:15:45,0.00,1.19,0.00,23.31,27.97,30.78,14.59,47.22,1022.03,2033.99,3057.00,2954.03,3196.00,600.12,598.78,25.36,0000 0000 0000 0000 000000
2015-09-30 10:20:47,0.00,1.19,0.00,23.39,27.97,30.80,14.60,47.21,1022.04,2033.99,3057.00,2954.03,3196.00,600.05,598.43,25.41,0000 0000 0000 0000 000000
2015-09-30 10:25:47,0.00,1.19,0.00,23.27,27.97,30.81,14.63,47.11,1022.21,2033.99,3057.00,2954.05,3195.99,600.04,598.72,25.46,0000 0000 0000 0000 000000
2015-09-30 10:30:49,0.00,1.19,0.00,23.33,27.97,30.77,14.60,47.10,1022.41,2034.00,3056.98,2954.05,3195.99,600.03,598.77,25.51,0000 0000 0000 0000 000000
2015-09-30 10:35:50,0.00,1.19,0.00,23.34,27.97,30.83,14.56,47.18,1022.44,2034.00,3056.95,2954.01,3195.99,599.89,598.66,25.56,0000 0000 0000 0000 000000
2015-09-30 10:40:51,0.00,1.19,0.00,23.26,27.96,30.77,14.54,47.13,1022.48,2034.00,3056.91,2954.02,3195.99,599.99,598.92,25.61,0000 0000 0000 0000 000000
2015-09-30 10:45:53,0.01,1.19,0.00,23.36,27.96,30.78,14.60,47.17,1022.48,2034.00,3056.56,2954.01,3195.99,600.05,598.82,25.66,0000 0000 0000 0000 000000
2015-09-30 10:50:54,0.00,1.19,0.00,23.30,27.96,30.80,14.65,47.17,1022.48,2034.00,3056.16,2954.00,3195.95,600.07,598.99,25.71,0000 0000 0000 0000 000000
2015-09-30 10:55:55,-0.00,1.19,0.00,23.38,27.96,30.78,14.55,47.03,1022.48,2034.00,3056.07,2954.00,3195.93,599.91,598.73,25.76,0000 0000 0000 0000 000000
2015-09-30 11:00:57,0.00,1.19,0.00,23.35,27.96,30.82,14.55,47.23,1022.48,2034.00,3056.02,2954.00,3195.93,599.84,598.55,25.81,0000 0000 0000 0000 000000
2015-09-30 11:05:58,0.00,1.19,0.00,23.25,27.96,30.82,14.59,47.15,1022.48,2034.00,3056.01,2954.00,3195.89,600.10,598.98,25.86,0000 0000 0000 0000 000000
2015-09-30 11:10:59,0.01,1.19,0.00,23.34,27.95,30.80,14.60,47.12,1022.49,2033.99,3056.00,2954.00,3195.54,600.42,599.20,25.91,0000 0000 0000 0000 000000
2015-09-30 11:16:00,0.00,1.19,0.00,23.24,27.95,30.85,14.60,47.27,1022.49,2033.99,3056.00,2954.00,3195.27,600.04,599.08,25.96,0000 0000 0000 0000 000000
2015-09-30 11:21:01,-0.00,1.19,0.00,23.21,27.95,30.79,14.73,47.21,1022.48,2033.99,3055.99,2954.00,3195.19,600.28,599.28,26.01,0000 0000 0000 0000 000000
2015-09-30 11:26:02,0.00,1.19,0.00,23.30,27.95,30.79,14.56,47.04,1022.48,2033.99,3055.98,2954.00,3195.26,600.01,599.02,26.06,0000 0000 0000 0000 000000
2015-09-30 11:31:04,-0.00,1.19,0.00,23.17,27.95,30.85,14.63,47.16,1022.48,2033.99,3055.98,2954.00,3195.22,600.06,599.20,26.11,0000 0000 0000 0000 000000
2015-09-30 11:36:05,0.00,1.19,0.00,23.13,27.95,30.78,14.68,47.21,1022.48,2033.99,3055.78,2954.00,3195.04,600.31,599.51,26.16,0000 0000 0000 0000 000000
2015-09-30 11:41:06,0.00,1.20,0.00,23.26,27.95,30.82,14.60,47.19,1022.48,2033.99,3055.60,2954.00,3195.02,600.14,599.05,26.21,0000 0000 0000 0000 000000
2015-09-30 11:46:07,-0.00,1.20,0.00,23.11,27.95,30.83,14.54,47.22,1022.48,2033.99,3055.44,2954.00,3195.01,599.77,599.23,26.26,0000 0000 0000 0000 000000
2015-09-30 11:51:08,0.00,1.20,0.00,23.09,27.95,30.77,14.73,47.32,1022.48,2033.99,3055.17,2954.00,3195.00,600.49,599.75,26.31,0000 0000 0000 0000 000000
2015-09-30 11:56:09,0.00,1.20,0.00,23.21,27.95,30.82,14.55,47.14,1022.48,2033.99,3055.03,2953.99,3195.00,600.00,599.00,26.36,0000 0000 0000 0000 000000
2015-09-30 12:01:11,0.00,1.20,0.00,23.10,27.95,30.82,14.75,47.19,1022.48,2033.99,3055.00,2953.98,3194.99,600.42,599.75,26.41,0000 0000 0000 0000 000000
2015-09-30 12:06:12,0.00,1.20,0.00,23.13,27.95,30.75,14.67,47.20,1022.48,2033.99,3055.00,2953.99,3194.99,599.98,599.23,26.46,0000 0000 0000 0000 000000
2015-09-30 12:11:13,0.00,1.20,0.00,23.19,27.94,30.82,14.67,47.30,1022.47,2033.99,3055.00,2953.98,3194.98,600.26,599.26,26.51,0000 0000 0000 0000 000000
2015-09-30 12:16:15,0.00,1.20,0.00,23.04,27.93,30.81,14.72,47.17,1022.41,2033.99,3054.97,2953.98,3194.95,600.49,599.76,26.56,0000 0000 0000 0000 000000
2015-09-30 12:21:16,0.00,1.20,0.00,23.15,27.93,30.76,14.60,47.21,1022.40,2033.99,3054.87,2953.98,3194.91,600.31,599.44,26.61,0000 0000 0000 0000 000000
2015-09-30 12:26:18,0.00,1.20,0.00,23.19,27.93,30.81,14.54,47.21,1022.44,2033.99,3054.68,2953.96,3194.85,599.66,598.74,26.66,0000 0000 0000 0000 000000
2015-09-30 12:31:19,0.01,1.20,0.00,23.18,27.93,30.78,14.62,47.23,1022.33,2033.99,3054.24,2953.96,3194.69,600.12,599.17,26.71,0000 0000 0000 0000 000000
2015-09-30 12:36:20,0.01,1.20,0.00,23.19,27.93,30.82,14.55,47.22,1022.22,2033.99,3054.04,2953.89,3194.20,600.05,598.97,26.76,0000 0000 0000 0000 000000
2015-09-30 12:41:21,0.00,1.20,0.00,23.10,27.92,30.77,14.60,47.08,1022.47,2033.99,3054.01,2953.85,3194.13,600.02,599.31,26.81,0000 0000 0000 0000 000000
2015-09-30 12:46:22,0.01,1.20,0.00,23.21,27.92,30.77,14.65,47.16,1022.47,2033.99,3054.00,2953.48,3194.00,600.12,599.24,26.86,0000 0000 0000 0000 000000
2015-09-30 12:51:23,0.01,1.20,0.00,23.09,27.92,30.81,14.56,46.97,1022.47,2033.99,3053.97,2953.22,3194.00,600.00,599.35,26.91,0000 0000 0000 0000 000000
2015-09-30 12:56:25,0.00,1.20,0.00,23.10,27.92,30.74,14.56,47.02,1022.46,2033.99,3053.93,2953.11,3194.00,599.77,599.17,26.96,0000 0000 0000 0000 000000